Time,TemperatureF,DewpointF,PressureIn,WindDirection,WindDirectionDegrees,WindSpeedMPH,WindSpeedGustMPH,Humidity,HourlyPrecipIn,Conditions,Clouds,dailyrainin,SoftwareType,DateUTC
2013-11-10 00:04:00,48.4,30.6,29.63,WNW,292,0.0,4.0,50,0.00,,,0.00,meteohub,2013-11-10 06:04:00,
2013-11-10 00:09:00,48.4,30.6,29.63,West,270,3.0,4.0,50,0.00,,,0.00,meteohub,2013-11-10 06:09:00,
2013-11-10 00:14:00,48.4,30.2,29.63,West,270,2.0,4.0,49,0.00,,,0.00,meteohub,2013-11-10 06:14:00,
2013-11-10 00:19:00,48.2,30.0,29.63,WNW,292,1.0,4.0,49,0.00,,,0.00,meteohub,2013-11-10 06:19:00,
2013-11-10 00:24:00,48.4,30.2,29.63,WSW,248,3.0,4.0,49,0.00,,,0.00,meteohub,2013-11-10 06:24:00,
2013-11-10 00:29:00,48.4,29.7,29.63,WNW,292,2.0,4.0,48,0.00,,,0.00,meteohub,2013-11-10 06:29:00,
2013-11-10 00:34:00,48.6,29.8,29.66,WNW,292,0.0,4.0,48,0.00,,,0.00,meteohub,2013-11-10 06:34:00,
2013-11-10 00:40:00,48.6,29.3,29.66,WNW,292,3.0,4.0,47,0.00,,,0.00,meteohub,2013-11-10 06:40:00,
2013-11-10 00:45:00,48.6,29.3,29.66,WNW,292,2.0,6.0,47,0.00,,,0.00,meteohub,2013-11-10 06:45:00,
2013-11-10 00:50:00,48.7,29.5,29.63,NW,315,4.0,6.0,47,0.00,,,0.00,meteohub,2013-11-10 06:50:00,
2013-11-10 00:55:00,48.9,29.7,29.63,NW,315,4.0,6.0,47,0.00,,,0.00,meteohub,2013-11-10 06:55:00,
2013-11-10 01:00:00,48.9,29.7,29.63,West,270,2.0,6.0,47,0.00,,,0.00,meteohub,2013-11-10 07:00:00,
2013-11-10 01:05:00,48.9,29.1,29.66,West,270,3.0,6.0,46,0.00,,,0.00,meteohub,2013-11-10 07:05:00,
2013-11-10 01:10:00,48.9,28.6,29.66,North,0,3.0,7.0,45,0.00,,,0.00,meteohub,2013-11-10 07:10:00,
2013-11-10 01:15:00,48.9,28.6,29.63,NNW,338,4.0,7.0,45,0.00,,,0.00,meteohub,2013-11-10 07:15:00,
2013-11-10 01:20:00,48.9,28.6,29.63,NW,315,3.0,7.0,45,0.00,,,0.00,meteohub,2013-11-10 07:20:00,
2013-11-10 01:26:00,48.7,28.4,29.63,NW,315,6.0,8.0,45,0.00,,,0.00,meteohub,2013-11-10 07:26:00,
2013-11-10 01:31:00,48.9,28.0,29.63,NNW,338,5.0,8.0,44,0.00,,,0.00,meteohub,2013-11-10 07:31:00,
2013-11-10 01:36:00,48.9,28.0,29.63,NW,315,11.0,11.0,44,0.00,,,0.00,meteohub,2013-11-10 07:36:00,
2013-11-10 01:41:00,49.1,28.2,29.63,NNW,338,3.0,11.0,44,0.00,,,0.00,meteohub,2013-11-10 07:41:00,
2013-11-10 01:46:00,49.1,28.2,29.63,NW,315,6.0,11.0,44,0.00,,,0.00,meteohub,2013-11-10 07:46:00,
2013-11-10 01:51:00,49.1,27.7,29.63,North,0,8.0,11.0,43,0.00,,,0.00,meteohub,2013-11-10 07:51:00,
2013-11-10 01:56:00,48.9,27.5,29.63,NNW,338,8.0,12.0,43,0.00,,,0.00,meteohub,2013-11-10 07:56:00,
2013-11-10 02:01:00,48.7,27.3,29.63,North,0,7.0,12.0,43,0.00,,,0.00,meteohub,2013-11-10 08:01:00,
2013-11-10 02:06:00,48.7,27.3,29.63,NW,315,5.0,11.0,43,0.00,,,0.00,meteohub,2013-11-10 08:06:00,
2013-11-10 02:11:00,48.6,27.1,29.63,WNW,292,4.0,13.0,43,0.00,,,0.00,meteohub,2013-11-10 08:11:00,
2013-11-10 02:17:00,48.4,27.0,29.66,NW,315,5.0,13.0,43,0.00,,,0.00,meteohub,2013-11-10 08:17:00,
2013-11-10 02:22:00,48.2,27.3,29.66,NNW,338,4.0,13.0,44,0.00,,,0.00,meteohub,2013-11-10 08:22:00,
2013-11-10 02:27:00,47.8,27.0,29.66,WNW,292,6.0,10.0,44,0.00,,,0.00,meteohub,2013-11-10 08:27:00,
2013-11-10 02:32:00,47.8,27.5,29.66,NNW,338,11.0,11.0,45,0.00,,,0.00,meteohub,2013-11-10 08:32:00,
2013-11-10 02:37:00,47.8,27.5,29.66,NW,315,4.0,11.0,45,0.00,,,0.00,meteohub,2013-11-10 08:37:00,
2013-11-10 02:42:00,47.7,27.3,29.66,NW,315,6.0,11.0,45,0.00,,,0.00,meteohub,2013-11-10 08:42:00,
2013-11-10 02:47:00,47.5,27.3,29.66,NW,315,5.0,11.0,45,0.00,,,0.00,meteohub,2013-11-10 08:47:00,
2013-11-10 02:52:00,47.3,27.7,29.66,WNW,292,6.0,10.0,46,0.00,,,0.00,meteohub,2013-11-10 08:52:00,
2013-11-10 02:57:00,47.3,27.7,29.66,NNW,338,3.0,13.0,46,0.00,,,0.00,meteohub,2013-11-10 08:57:00,
2013-11-10 03:02:00,46.9,27.3,29.69,North,0,6.0,13.0,46,0.00,,,0.00,meteohub,2013-11-10 09:02:00,
2013-11-10 03:07:00,46.9,27.9,29.69,NW,315,6.0,13.0,47,0.00,,,0.00,meteohub,2013-11-10 09:07:00,
2013-11-10 03:12:00,46.8,27.7,29.69,NW,315,8.0,9.0,47,0.00,,,0.00,meteohub,2013-11-10 09:12:00,
2013-11-10 03:17:00,46.6,27.0,29.69,NNW,338,4.0,9.0,46,0.00,,,0.00,meteohub,2013-11-10 09:17:00,
2013-11-10 03:22:00,46.4,26.8,29.69,North,0,4.0,10.0,46,0.00,,,0.00,meteohub,2013-11-10 09:22:00,
2013-11-10 03:27:00,46.2,27.1,29.69,NNW,338,3.0,10.0,47,0.00,,,0.00,meteohub,2013-11-10 09:27:00,
2013-11-10 03:32:00,46.0,27.0,29.69,NW,315,5.0,10.0,47,0.00,,,0.00,meteohub,2013-11-10 09:32:00,
2013-11-10 03:37:00,45.9,26.8,29.69,NW,315,3.0,8.0,47,0.00,,,0.00,meteohub,2013-11-10 09:37:00,
2013-11-10 03:42:00,45.5,26.4,29.69,West,270,3.0,8.0,47,0.00,,,0.00,meteohub,2013-11-10 09:42:00,
2013-11-10 03:47:00,45.3,26.2,29.69,NNW,338,2.0,6.0,47,0.00,,,0.00,meteohub,2013-11-10 09:47:00,
2013-11-10 03:52:00,45.1,26.2,29.69,NNW,338,3.0,6.0,47,0.00,,,0.00,meteohub,2013-11-10 09:52:00,
2013-11-10 03:57:00,44.8,25.9,29.69,NNW,338,5.0,6.0,47,0.00,,,0.00,meteohub,2013-11-10 09:57:00,
2013-11-10 04:02:00,44.8,26.4,29.69,WNW,292,2.0,6.0,48,0.00,,,0.00,meteohub,2013-11-10 10:02:00,
2013-11-10 04:07:00,44.6,26.2,29.69,NW,315,4.0,5.0,48,0.00,,,0.00,meteohub,2013-11-10 10:07:00,
2013-11-10 04:12:00,44.6,26.2,29.69,NNW,338,2.0,7.0,48,0.00,,,0.00,meteohub,2013-11-10 10:12:00,
2013-11-10 04:17:00,44.4,26.1,29.66,NW,315,4.0,7.0,48,0.00,,,0.00,meteohub,2013-11-10 10:17:00,
2013-11-10 04:22:00,44.1,25.7,29.66,West,270,2.0,7.0,48,0.00,,,0.00,meteohub,2013-11-10 10:22:00,
2013-11-10 04:27:00,43.9,25.5,29.66,NNW,338,3.0,5.0,48,0.00,,,0.00,meteohub,2013-11-10 10:27:00,
2013-11-10 04:32:00,43.9,25.5,29.69,NNW,338,4.0,5.0,48,0.00,,,0.00,meteohub,2013-11-10 10:32:00,
2013-11-10 04:37:00,43.7,25.9,29.69,NW,315,3.0,5.0,49,0.00,,,0.00,meteohub,2013-11-10 10:37:00,
2013-11-10 04:42:00,43.5,25.7,29.69,WNW,292,2.0,5.0,49,0.00,,,0.00,meteohub,2013-11-10 10:42:00,
2013-11-10 04:47:00,43.5,25.7,29.69,NNW,338,6.0,6.0,49,0.00,,,0.00,meteohub,2013-11-10 10:47:00,
2013-11-10 04:52:00,43.3,25.5,29.69,NNW,338,3.0,6.0,49,0.00,,,0.00,meteohub,2013-11-10 10:52:00,
2013-11-10 04:57:00,43.3,25.5,29.69,North,0,4.0,7.0,49,0.00,,,0.00,meteohub,2013-11-10 10:57:00,
2013-11-10 05:00:00,43.2,25.3,29.69,NNE,22,5.0,9.0,49,0.00,,,0.00,meteohub,2013-11-10 11:00:00,
2013-11-10 05:05:00,43.2,25.3,29.69,NNW,338,6.0,9.0,49,0.00,,,0.00,meteohub,2013-11-10 11:05:00,
2013-11-10 05:10:00,43.2,25.9,29.69,NNW,338,4.0,9.0,50,0.00,,,0.00,meteohub,2013-11-10 11:10:00,
2013-11-10 05:15:00,43.3,26.1,29.72,NW,315,6.0,8.0,50,0.00,,,0.00,meteohub,2013-11-10 11:15:00,
2013-11-10 05:21:00,43.3,26.1,29.72,NNW,338,5.0,8.0,50,0.00,,,0.00,meteohub,2013-11-10 11:21:00,
2013-11-10 05:26:00,43.2,25.9,29.72,NNW,338,4.0,8.0,50,0.00,,,0.00,meteohub,2013-11-10 11:26:00,
2013-11-10 05:31:00,43.0,25.7,29.72,NNW,338,5.0,8.0,50,0.00,,,0.00,meteohub,2013-11-10 11:31:00,
2013-11-10 05:36:00,43.0,25.7,29.72,NW,315,5.0,6.0,50,0.00,,,0.00,meteohub,2013-11-10 11:36:00,
2013-11-10 05:41:00,42.8,25.5,29.72,NNW,338,4.0,9.0,50,0.00,,,0.00,meteohub,2013-11-10 11:41:00,
2013-11-10 05:46:00,42.6,25.3,29.75,NNW,338,4.0,9.0,50,0.00,,,0.00,meteohub,2013-11-10 11:46:00,
2013-11-10 05:51:00,42.4,25.2,29.75,NNW,338,4.0,9.0,50,0.00,,,0.00,meteohub,2013-11-10 11:51:00,
2013-11-10 05:56:00,42.3,25.0,29.75,North,0,3.0,6.0,50,0.00,,,0.00,meteohub,2013-11-10 11:56:00,
2013-11-10 06:01:00,42.1,24.8,29.75,WNW,292,2.0,6.0,50,0.00,,,0.00,meteohub,2013-11-10 12:01:00,
2013-11-10 06:06:00,41.9,25.2,29.75,North,0,3.0,6.0,51,0.00,,,0.00,meteohub,2013-11-10 12:06:00,
2013-11-10 06:11:00,41.7,25.0,29.75,NNW,338,3.0,5.0,51,0.00,,,0.00,meteohub,2013-11-10 12:11:00,
2013-11-10 06:16:00,41.7,25.0,29.75,NNW,338,2.0,5.0,51,0.00,,,0.00,meteohub,2013-11-10 12:16:00,
2013-11-10 06:22:00,41.5,24.8,29.75,NNW,338,4.0,5.0,51,0.00,,,0.00,meteohub,2013-11-10 12:22:00,
2013-11-10 06:27:00,41.4,24.6,29.75,NNW,338,4.0,5.0,51,0.00,,,0.00,meteohub,2013-11-10 12:27:00,
2013-11-10 06:32:00,41.4,24.6,29.75,NW,315,5.0,6.0,51,0.00,,,0.00,meteohub,2013-11-10 12:32:00,
2013-11-10 06:37:00,41.4,25.2,29.75,NNW,338,4.0,6.0,52,0.00,,,0.00,meteohub,2013-11-10 12:37:00,
2013-11-10 06:42:00,41.2,25.0,29.75,NNW,338,6.0,6.0,52,0.00,,,0.00,meteohub,2013-11-10 12:42:00,
2013-11-10 06:47:00,41.0,24.8,29.75,NNW,338,2.0,6.0,52,0.00,,,0.00,meteohub,2013-11-10 12:47:00,
2013-11-10 06:52:00,41.0,25.2,29.75,NNW,338,3.0,6.0,53,0.00,,,0.00,meteohub,2013-11-10 12:52:00,
2013-11-10 06:57:00,41.0,25.2,29.75,NNW,338,4.0,6.0,53,0.00,,,0.00,meteohub,2013-11-10 12:57:00,
2013-11-10 07:02:00,41.0,25.2,29.72,NNW,338,2.0,6.0,53,0.00,,,0.00,meteohub,2013-11-10 13:02:00,
2013-11-10 07:07:00,41.2,25.3,29.72,NW,315,3.0,6.0,53,0.00,,,0.00,meteohub,2013-11-10 13:07:00,
2013-11-10 07:12:00,41.2,25.3,29.72,NNW,338,4.0,6.0,53,0.00,,,0.00,meteohub,2013-11-10 13:12:00,
2013-11-10 07:17:00,41.4,25.5,29.75,NW,315,3.0,5.0,53,0.00,,,0.00,meteohub,2013-11-10 13:17:00,
2013-11-10 07:22:00,41.7,25.9,29.75,NNW,338,4.0,5.0,53,0.00,,,0.00,meteohub,2013-11-10 13:22:00,
2013-11-10 07:27:00,42.1,26.2,29.75,NNW,338,4.0,6.0,53,0.00,,,0.00,meteohub,2013-11-10 13:27:00,
2013-11-10 07:32:00,42.3,26.4,29.75,NW,315,5.0,6.0,53,0.00,,,0.00,meteohub,2013-11-10 13:32:00,
2013-11-10 07:37:00,42.8,27.0,29.75,WNW,292,4.0,6.0,53,0.00,,,0.00,meteohub,2013-11-10 13:37:00,
2013-11-10 07:42:00,43.3,27.0,29.75,NW,315,4.0,6.0,52,0.00,,,0.00,meteohub,2013-11-10 13:42:00,
2013-11-10 07:47:00,43.7,27.3,29.75,NNW,338,3.0,6.0,52,0.00,,,0.00,meteohub,2013-11-10 13:47:00,
2013-11-10 07:52:00,43.9,27.0,29.75,NW,315,4.0,7.0,51,0.00,,,0.00,meteohub,2013-11-10 13:52:00,
2013-11-10 07:57:00,44.1,27.1,29.75,NNW,338,6.0,7.0,51,0.00,,,0.00,meteohub,2013-11-10 13:57:00,
2013-11-10 08:02:00,44.2,26.8,29.78,West,270,3.0,9.0,50,0.00,,,0.00,meteohub,2013-11-10 14:02:00,
2013-11-10 08:07:00,44.6,26.2,29.78,NW,315,8.0,11.0,48,0.00,,,0.00,meteohub,2013-11-10 14:07:00,
2013-11-10 08:12:00,44.8,26.4,29.78,North,0,4.0,12.0,48,0.00,,,0.00,meteohub,2013-11-10 14:12:00,
2013-11-10 08:17:00,44.8,25.3,29.78,WNW,292,8.0,12.0,46,0.00,,,0.00,meteohub,2013-11-10 14:17:00,
2013-11-10 08:22:00,45.3,24.8,29.78,NNW,338,11.0,16.0,44,0.00,,,0.00,meteohub,2013-11-10 14:22:00,
2013-11-10 08:27:00,45.3,24.3,29.78,NW,315,8.0,16.0,43,0.00,,,0.00,meteohub,2013-11-10 14:27:00,
2013-11-10 08:32:00,45.3,24.3,29.81,WSW,248,11.0,14.0,43,0.00,,,0.00,meteohub,2013-11-10 14:32:00,
2013-11-10 08:37:00,45.9,25.2,29.81,NW,315,5.0,14.0,44,0.00,,,0.00,meteohub,2013-11-10 14:37:00,
2013-11-10 08:42:00,46.0,24.3,29.81,NW,315,13.0,15.0,42,0.00,,,0.00,meteohub,2013-11-10 14:42:00,
2013-11-10 08:47:00,46.2,24.4,29.81,North,0,4.0,15.0,42,0.00,,,0.00,meteohub,2013-11-10 14:47:00,
2013-11-10 08:52:00,46.2,23.9,29.81,NNW,338,9.0,15.0,41,0.00,,,0.00,meteohub,2013-11-10 14:52:00,
2013-11-10 08:57:00,46.4,24.1,29.81,WNW,292,6.0,13.0,41,0.00,,,0.00,meteohub,2013-11-10 14:57:00,
2013-11-10 09:02:00,47.1,24.1,29.81,NNW,338,6.0,13.0,40,0.00,,,0.00,meteohub,2013-11-10 15:02:00,
2013-11-10 09:07:00,47.1,24.1,29.81,NW,315,10.0,13.0,40,0.00,,,0.00,meteohub,2013-11-10 15:07:00,
2013-11-10 09:12:00,47.1,23.5,29.81,NNW,338,6.0,15.0,39,0.00,,,0.00,meteohub,2013-11-10 15:12:00,
2013-11-10 09:17:00,46.9,23.4,29.81,NW,315,4.0,15.0,39,0.00,,,0.00,meteohub,2013-11-10 15:17:00,
2013-11-10 09:22:00,47.3,23.7,29.81,NW,315,6.0,15.0,39,0.00,,,0.00,meteohub,2013-11-10 15:22:00,
2013-11-10 09:27:00,47.3,23.7,29.81,North,0,10.0,11.0,39,0.00,,,0.00,meteohub,2013-11-10 15:27:00,
2013-11-10 09:32:00,47.3,23.0,29.81,NW,315,5.0,11.0,38,0.00,,,0.00,meteohub,2013-11-10 15:32:00,
2013-11-10 09:37:00,47.3,23.0,29.81,NW,315,3.0,13.0,38,0.00,,,0.00,meteohub,2013-11-10 15:37:00,
2013-11-10 09:42:00,47.3,23.7,29.81,West,270,4.0,13.0,39,0.00,,,0.00,meteohub,2013-11-10 15:42:00,
2013-11-10 09:47:00,47.3,23.0,29.81,NNW,338,3.0,13.0,38,0.00,,,0.00,meteohub,2013-11-10 15:47:00,
2013-11-10 09:52:00,47.5,23.2,29.81,NNE,22,8.0,10.0,38,0.00,,,0.00,meteohub,2013-11-10 15:52:00,
2013-11-10 09:57:00,47.7,23.4,29.81,North,0,6.0,11.0,38,0.00,,,0.00,meteohub,2013-11-10 15:57:00,
2013-11-10 10:02:00,47.7,23.4,29.81,NW,315,6.0,11.0,38,0.00,,,0.00,meteohub,2013-11-10 16:02:00,
2013-11-10 10:07:00,47.8,23.5,29.81,WNW,292,3.0,11.0,38,0.00,,,0.00,meteohub,2013-11-10 16:07:00,
2013-11-10 10:12:00,47.8,23.5,29.81,NNW,338,8.0,11.0,38,0.00,,,0.00,meteohub,2013-11-10 16:12:00,
2013-11-10 10:17:00,47.8,23.5,29.81,WNW,292,5.0,11.0,38,0.00,,,0.00,meteohub,2013-11-10 16:17:00,
2013-11-10 10:22:00,47.7,23.4,29.81,NNE,22,6.0,11.0,38,0.00,,,0.00,meteohub,2013-11-10 16:22:00,
2013-11-10 10:27:00,48.0,23.7,29.81,NW,315,6.0,10.0,38,0.00,,,0.00,meteohub,2013-11-10 16:27:00,
2013-11-10 10:32:00,48.6,24.1,29.81,NW,315,3.0,10.0,38,0.00,,,0.00,meteohub,2013-11-10 16:32:00,
2013-11-10 10:37:00,48.7,24.3,29.81,NNE,22,9.0,10.0,38,0.00,,,0.00,meteohub,2013-11-10 16:37:00,
2013-11-10 10:42:00,48.6,24.1,29.81,NNE,22,4.0,10.0,38,0.00,,,0.00,meteohub,2013-11-10 16:42:00,
2013-11-10 10:47:00,48.7,24.3,29.81,NNW,338,4.0,9.0,38,0.00,,,0.00,meteohub,2013-11-10 16:47:00,
2013-11-10 10:52:00,48.7,24.3,29.81,North,0,3.0,9.0,38,0.00,,,0.00,meteohub,2013-11-10 16:52:00,
2013-11-10 10:57:00,49.1,24.1,29.81,NNW,338,5.0,8.0,37,0.00,,,0.00,meteohub,2013-11-10 16:57:00,
2013-11-10 11:02:00,49.5,25.0,29.81,NNW,338,2.0,8.0,38,0.00,,,0.00,meteohub,2013-11-10 17:02:00,
2013-11-10 11:07:00,50.2,25.0,29.81,West,270,4.0,8.0,37,0.00,,,0.00,meteohub,2013-11-10 17:07:00,
2013-11-10 11:12:00,50.7,25.5,29.81,NNE,22,1.0,8.0,37,0.00,,,0.00,meteohub,2013-11-10 17:12:00,
2013-11-10 11:17:00,50.0,24.8,29.81,North,0,4.0,7.0,37,0.00,,,0.00,meteohub,2013-11-10 17:17:00,
2013-11-10 11:22:00,50.4,25.2,29.81,West,270,5.0,6.0,37,0.00,,,0.00,meteohub,2013-11-10 17:22:00,
2013-11-10 11:27:00,50.7,25.5,29.81,NNW,338,4.0,6.0,37,0.00,,,0.00,meteohub,2013-11-10 17:27:00,
2013-11-10 11:32:00,50.4,25.2,29.81,NNE,22,3.0,6.0,37,0.00,,,0.00,meteohub,2013-11-10 17:32:00,
2013-11-10 11:37:00,51.3,25.9,29.81,NNW,338,4.0,5.0,37,0.00,,,0.00,meteohub,2013-11-10 17:37:00,
2013-11-10 11:42:00,51.8,25.7,29.81,WNW,292,2.0,6.0,36,0.00,,,0.00,meteohub,2013-11-10 17:42:00,
2013-11-10 11:47:00,53.4,27.1,29.78,West,270,11.0,11.0,36,0.00,,,0.00,meteohub,2013-11-10 17:47:00,
2013-11-10 11:52:00,54.0,27.7,29.78,SW,225,5.0,11.0,36,0.00,,,0.00,meteohub,2013-11-10 17:52:00,
2013-11-10 11:57:00,54.5,28.2,29.78,WNW,292,3.0,11.0,36,0.00,,,0.00,meteohub,2013-11-10 17:57:00,
2013-11-10 12:02:00,55.0,27.9,29.78,SW,225,4.0,11.0,35,0.00,,,0.00,meteohub,2013-11-10 18:02:00,
2013-11-10 12:07:00,54.3,25.2,29.78,NNW,338,6.0,9.0,32,0.00,,,0.00,meteohub,2013-11-10 18:07:00,
2013-11-10 12:12:00,53.4,24.4,29.78,NNW,338,6.0,9.0,32,0.00,,,0.00,meteohub,2013-11-10 18:12:00,
2013-11-10 12:17:00,54.3,25.9,29.78,NW,315,6.0,9.0,33,0.00,,,0.00,meteohub,2013-11-10 18:17:00,
2013-11-10 12:22:00,56.1,27.5,29.78,WNW,292,5.0,9.0,33,0.00,,,0.00,meteohub,2013-11-10 18:22:00,
2013-11-10 12:27:00,56.1,26.8,29.78,North,0,6.0,8.0,32,0.00,,,0.00,meteohub,2013-11-10 18:27:00,
2013-11-10 12:32:00,55.6,26.2,29.75,WNW,292,3.0,8.0,32,0.00,,,0.00,meteohub,2013-11-10 18:32:00,
2013-11-10 12:37:00,56.1,25.2,29.75,WSW,248,6.0,8.0,30,0.00,,,0.00,meteohub,2013-11-10 18:37:00,
2013-11-10 12:42:00,56.8,26.6,29.75,NW,315,6.0,8.0,31,0.00,,,0.00,meteohub,2013-11-10 18:42:00,
2013-11-10 12:47:00,56.8,25.7,29.75,NE,45,1.0,9.0,30,0.00,,,0.00,meteohub,2013-11-10 18:47:00,
2013-11-10 12:52:00,56.3,25.3,29.75,West,270,6.0,9.0,30,0.00,,,0.00,meteohub,2013-11-10 18:52:00,
2013-11-10 12:57:00,56.8,25.7,29.75,WNW,292,5.0,9.0,30,0.00,,,0.00,meteohub,2013-11-10 18:57:00,
2013-11-10 13:02:00,57.4,26.2,29.75,NNW,338,3.0,6.0,30,0.00,,,0.00,meteohub,2013-11-10 19:02:00,
2013-11-10 13:07:00,57.7,26.6,29.75,SW,225,0.0,6.0,30,0.00,,,0.00,meteohub,2013-11-10 19:07:00,
2013-11-10 13:12:00,57.7,25.7,29.75,WNW,292,3.0,6.0,29,0.00,,,0.00,meteohub,2013-11-10 19:12:00,
2013-11-10 13:17:00,57.0,24.3,29.75,North,0,4.0,6.0,28,0.00,,,0.00,meteohub,2013-11-10 19:17:00,
2013-11-10 13:22:00,57.2,24.4,29.75,WNW,292,3.0,6.0,28,0.00,,,0.00,meteohub,2013-11-10 19:22:00,
2013-11-10 13:27:00,57.9,25.9,29.75,NNW,338,3.0,6.0,29,0.00,,,0.00,meteohub,2013-11-10 19:27:00,
2013-11-10 13:32:00,58.1,26.1,29.72,West,270,0.0,7.0,29,0.00,,,0.00,meteohub,2013-11-10 19:32:00,
2013-11-10 13:37:00,58.5,26.4,29.72,SW,225,1.0,7.0,29,0.00,,,0.00,meteohub,2013-11-10 19:37:00,
2013-11-10 13:42:00,58.8,26.6,29.72,North,0,2.0,7.0,29,0.00,,,0.00,meteohub,2013-11-10 19:42:00,
2013-11-10 13:47:00,58.1,25.2,29.75,West,270,4.0,6.0,28,0.00,,,0.00,meteohub,2013-11-10 19:47:00,
2013-11-10 13:52:00,58.5,25.5,29.75,WSW,248,3.0,5.0,28,0.00,,,0.00,meteohub,2013-11-10 19:52:00,
2013-11-10 13:57:00,58.6,24.8,29.75,North,0,2.0,6.0,27,0.00,,,0.00,meteohub,2013-11-10 19:57:00,
2013-11-10 14:02:00,57.6,23.9,29.78,NNE,22,3.0,6.0,27,0.00,,,0.00,meteohub,2013-11-10 20:02:00,
2013-11-10 14:07:00,57.9,24.3,29.78,WSW,248,3.0,6.0,27,0.00,,,0.00,meteohub,2013-11-10 20:07:00,
2013-11-10 14:12:00,57.9,24.3,29.78,NNW,338,5.0,6.0,27,0.00,,,0.00,meteohub,2013-11-10 20:12:00,
2013-11-10 14:17:00,57.9,24.3,29.72,NW,315,2.0,6.0,27,0.00,,,0.00,meteohub,2013-11-10 20:17:00,
2013-11-10 14:22:00,56.8,24.1,29.72,East,90,2.0,6.0,28,0.00,,,0.00,meteohub,2013-11-10 20:22:00,
2013-11-10 14:27:00,57.4,24.6,29.72,WNW,292,3.0,6.0,28,0.00,,,0.00,meteohub,2013-11-10 20:27:00,
2013-11-10 14:32:00,57.4,23.7,29.75,NNW,338,3.0,5.0,27,0.00,,,0.00,meteohub,2013-11-10 20:32:00,
2013-11-10 14:37:00,56.3,22.8,29.75,WNW,292,3.0,6.0,27,0.00,,,0.00,meteohub,2013-11-10 20:37:00,
2013-11-10 14:42:00,56.7,23.9,29.75,WNW,292,3.0,6.0,28,0.00,,,0.00,meteohub,2013-11-10 20:42:00,
2013-11-10 14:47:00,56.5,23.0,29.72,West,270,3.0,6.0,27,0.00,,,0.00,meteohub,2013-11-10 20:47:00,
2013-11-10 14:52:00,55.9,22.5,29.72,North,0,2.0,6.0,27,0.00,,,0.00,meteohub,2013-11-10 20:52:00,
2013-11-10 14:57:00,55.6,22.3,29.72,WSW,248,3.0,6.0,27,0.00,,,0.00,meteohub,2013-11-10 20:57:00,
2013-11-10 15:02:00,55.2,22.8,29.75,North,0,3.0,5.0,28,0.00,,,0.00,meteohub,2013-11-10 21:02:00,
2013-11-10 15:07:00,55.2,22.8,29.75,NNW,338,1.0,5.0,28,0.00,,,0.00,meteohub,2013-11-10 21:07:00,
2013-11-10 15:12:00,55.0,22.6,29.75,NW,315,4.0,6.0,28,0.00,,,0.00,meteohub,2013-11-10 21:12:00,
2013-11-10 15:17:00,55.0,22.6,29.75,West,270,6.0,6.0,28,0.00,,,0.00,meteohub,2013-11-10 21:17:00,
2013-11-10 15:22:00,55.0,22.6,29.75,WSW,248,2.0,6.0,28,0.00,,,0.00,meteohub,2013-11-10 21:22:00,
2013-11-10 15:27:00,54.9,22.5,29.75,WNW,292,2.0,7.0,28,0.00,,,0.00,meteohub,2013-11-10 21:27:00,
2013-11-10 15:32:00,54.7,22.3,29.75,NNW,338,2.0,7.0,28,0.00,,,0.00,meteohub,2013-11-10 21:32:00,
2013-11-10 15:37:00,54.5,22.1,29.75,NW,315,2.0,5.0,28,0.00,,,0.00,meteohub,2013-11-10 21:37:00,
2013-11-10 15:42:00,54.3,21.9,29.75,WNW,292,4.0,4.0,28,0.00,,,0.00,meteohub,2013-11-10 21:42:00,
2013-11-10 15:47:00,54.3,21.9,29.75,WSW,248,3.0,4.0,28,0.00,,,0.00,meteohub,2013-11-10 21:47:00,
2013-11-10 15:52:00,54.3,21.9,29.75,WSW,248,5.0,5.0,28,0.00,,,0.00,meteohub,2013-11-10 21:52:00,
2013-11-10 15:57:00,54.1,22.6,29.75,SW,225,2.0,5.0,29,0.00,,,0.00,meteohub,2013-11-10 21:57:00,
2013-11-10 16:02:00,53.8,22.3,29.75,West,270,3.0,5.0,29,0.00,,,0.00,meteohub,2013-11-10 22:02:00,
2013-11-10 16:07:00,53.4,22.8,29.75,WNW,292,4.0,6.0,30,0.00,,,0.00,meteohub,2013-11-10 22:07:00,
2013-11-10 16:12:00,53.2,22.6,29.75,SW,225,3.0,6.0,30,0.00,,,0.00,meteohub,2013-11-10 22:12:00,
2013-11-10 16:17:00,52.9,22.3,29.75,WSW,248,2.0,6.0,30,0.00,,,0.00,meteohub,2013-11-10 22:17:00,
2013-11-10 16:22:00,52.3,21.9,29.75,WSW,248,2.0,6.0,30,0.00,,,0.00,meteohub,2013-11-10 22:22:00,
2013-11-10 16:27:00,52.0,21.6,29.75,WSW,248,2.0,3.0,30,0.00,,,0.00,meteohub,2013-11-10 22:27:00,
2013-11-10 16:32:00,51.4,21.9,29.75,WSW,248,0.0,3.0,31,0.00,,,0.00,meteohub,2013-11-10 22:32:00,
2013-11-10 16:37:00,50.9,21.4,29.75,NNW,338,1.0,3.0,31,0.00,,,0.00,meteohub,2013-11-10 22:37:00,
2013-11-10 16:42:00,50.4,21.7,29.75,NNW,338,0.0,3.0,32,0.00,,,0.00,meteohub,2013-11-10 22:42:00,
2013-11-10 16:47:00,49.8,21.9,29.75,NNW,338,0.0,1.0,33,0.00,,,0.00,meteohub,2013-11-10 22:47:00,
2013-11-10 16:52:00,49.5,21.6,29.75,West,270,0.0,1.0,33,0.00,,,0.00,meteohub,2013-11-10 22:52:00,
2013-11-10 16:57:00,48.9,21.9,29.75,West,270,0.0,1.0,34,0.00,,,0.00,meteohub,2013-11-10 22:57:00,
2013-11-10 17:02:00,48.4,21.4,29.78,NNE,22,0.0,1.0,34,0.00,,,0.00,meteohub,2013-11-10 23:02:00,
2013-11-10 17:07:00,47.8,22.3,29.78,NNE,22,0.0,1.0,36,0.00,,,0.00,meteohub,2013-11-10 23:07:00,
2013-11-10 17:12:00,47.7,22.6,29.78,NNE,22,0.0,0.0,37,0.00,,,0.00,meteohub,2013-11-10 23:12:00,
2013-11-10 17:17:00,47.3,22.5,29.75,NNE,22,0.0,0.0,37,0.00,,,0.00,meteohub,2013-11-10 23:17:00,
2013-11-10 17:22:00,46.9,22.1,29.75,NNE,22,0.0,0.0,37,0.00,,,0.00,meteohub,2013-11-10 23:22:00,
2013-11-10 17:27:00,46.4,22.3,29.75,NNE,22,0.0,0.0,38,0.00,,,0.00,meteohub,2013-11-10 23:27:00,
2013-11-10 17:32:00,46.2,22.1,29.75,NNE,22,0.0,0.0,38,0.00,,,0.00,meteohub,2013-11-10 23:32:00,
2013-11-10 17:37:00,45.9,22.3,29.75,NNE,22,0.0,0.0,39,0.00,,,0.00,meteohub,2013-11-10 23:37:00,
2013-11-10 17:42:00,45.5,22.1,29.75,NNE,22,0.0,0.0,39,0.00,,,0.00,meteohub,2013-11-10 23:42:00,
2013-11-10 17:47:00,45.1,22.3,29.75,NNE,22,0.0,0.0,40,0.00,,,0.00,meteohub,2013-11-10 23:47:00,
2013-11-10 17:52:00,44.6,21.2,29.75,NNE,22,0.0,0.0,39,0.00,,,0.00,meteohub,2013-11-10 23:52:00,
2013-11-10 17:57:00,44.4,22.3,29.75,NNE,22,0.0,0.0,41,0.00,,,0.00,meteohub,2013-11-10 23:57:00,
2013-11-10 18:02:00,44.1,21.9,29.75,NNE,22,0.0,0.0,41,0.00,,,0.00,meteohub,2013-11-11 00:02:00,
2013-11-10 18:07:00,43.7,21.6,29.75,NNE,22,0.0,0.0,41,0.00,,,0.00,meteohub,2013-11-11 00:07:00,
2013-11-10 18:12:00,43.5,21.9,29.75,NNE,22,0.0,0.0,42,0.00,,,0.00,meteohub,2013-11-11 00:12:00,
2013-11-10 18:17:00,43.5,21.9,29.75,NNE,22,0.0,1.0,42,0.00,,,0.00,meteohub,2013-11-11 00:17:00,
2013-11-10 18:23:00,43.3,21.9,29.75,NNE,22,0.0,1.0,42,0.00,,,0.00,meteohub,2013-11-11 00:23:00,
2013-11-10 18:28:00,43.0,22.1,29.75,NNE,22,0.0,1.0,43,0.00,,,0.00,meteohub,2013-11-11 00:28:00,
2013-11-10 18:33:00,42.8,21.9,29.75,NE,45,0.0,0.0,43,0.00,,,0.00,meteohub,2013-11-11 00:33:00,
2013-11-10 18:38:00,42.6,22.3,29.75,ENE,68,1.0,1.0,44,0.00,,,0.00,meteohub,2013-11-11 00:38:00,
2013-11-10 18:43:00,42.4,22.1,29.75,ENE,68,0.0,2.0,44,0.00,,,0.00,meteohub,2013-11-11 00:43:00,
2013-11-10 18:48:00,42.1,22.3,29.75,ENE,68,0.0,2.0,45,0.00,,,0.00,meteohub,2013-11-11 00:48:00,
2013-11-10 18:53:00,41.9,23.2,29.75,South,180,0.0,2.0,47,0.00,,,0.00,meteohub,2013-11-11 00:53:00,
2013-11-10 18:58:00,41.7,23.5,29.75,South,180,0.0,2.0,48,0.00,,,0.00,meteohub,2013-11-11 00:58:00,
2013-11-10 19:04:00,41.4,23.2,29.75,South,180,0.0,1.0,48,0.00,,,0.00,meteohub,2013-11-11 01:04:00,
2013-11-10 19:09:00,41.2,23.0,29.75,South,180,0.0,0.0,48,0.00,,,0.00,meteohub,2013-11-11 01:09:00,
2013-11-10 19:14:00,40.8,23.2,29.75,South,180,0.0,0.0,49,0.00,,,0.00,meteohub,2013-11-11 01:14:00,
2013-11-10 19:19:00,40.6,23.5,29.75,South,180,0.0,0.0,50,0.00,,,0.00,meteohub,2013-11-11 01:19:00,
2013-11-10 19:24:00,40.5,23.4,29.75,South,180,0.0,0.0,50,0.00,,,0.00,meteohub,2013-11-11 01:24:00,
2013-11-10 19:29:00,40.1,23.0,29.75,South,180,0.0,0.0,50,0.00,,,0.00,meteohub,2013-11-11 01:29:00,
2013-11-10 19:34:00,39.9,22.8,29.75,South,180,0.0,0.0,50,0.00,,,0.00,meteohub,2013-11-11 01:34:00,
2013-11-10 19:39:00,39.7,22.6,29.75,South,180,0.0,0.0,50,0.00,,,0.00,meteohub,2013-11-11 01:39:00,
2013-11-10 19:44:00,39.7,23.2,29.75,South,180,0.0,0.0,51,0.00,,,0.00,meteohub,2013-11-11 01:44:00,
2013-11-10 19:49:00,39.7,23.2,29.75,South,180,0.0,0.0,51,0.00,,,0.00,meteohub,2013-11-11 01:49:00,
2013-11-10 19:54:00,39.6,23.0,29.75,South,180,0.0,0.0,51,0.00,,,0.00,meteohub,2013-11-11 01:54:00,
2013-11-10 20:00:00,39.6,23.4,29.75,South,180,0.0,0.0,52,0.00,,,0.00,meteohub,2013-11-11 02:00:00,
2013-11-10 20:05:00,39.4,23.2,29.75,South,180,0.0,0.0,52,0.00,,,0.00,meteohub,2013-11-11 02:05:00,
2013-11-10 20:10:00,39.2,23.2,29.75,South,180,0.0,0.0,52,0.00,,,0.00,meteohub,2013-11-11 02:10:00,
2013-11-10 20:15:00,39.0,23.0,29.75,South,180,0.0,0.0,52,0.00,,,0.00,meteohub,2013-11-11 02:15:00,
2013-11-10 20:20:00,38.8,23.2,29.72,South,180,0.0,0.0,53,0.00,,,0.00,meteohub,2013-11-11 02:20:00,
2013-11-10 20:25:00,38.7,23.5,29.72,South,180,0.0,0.0,54,0.00,,,0.00,meteohub,2013-11-11 02:25:00,
2013-11-10 20:30:00,38.3,23.2,29.72,South,180,0.0,0.0,54,0.00,,,0.00,meteohub,2013-11-11 02:30:00,
2013-11-10 20:35:00,38.3,23.2,29.75,South,180,0.0,0.0,54,0.00,,,0.00,meteohub,2013-11-11 02:35:00,
2013-11-10 20:40:00,38.1,23.0,29.75,South,180,0.0,0.0,54,0.00,,,0.00,meteohub,2013-11-11 02:40:00,
2013-11-10 20:46:00,37.9,22.8,29.75,South,180,0.0,0.0,54,0.00,,,0.00,meteohub,2013-11-11 02:46:00,
2013-11-10 20:51:00,37.9,23.2,29.75,South,180,0.0,0.0,55,0.00,,,0.00,meteohub,2013-11-11 02:51:00,
2013-11-10 20:56:00,37.8,23.0,29.75,South,180,0.0,0.0,55,0.00,,,0.00,meteohub,2013-11-11 02:56:00,
2013-11-10 21:01:00,37.8,23.5,29.75,South,180,0.0,0.0,56,0.00,,,0.00,meteohub,2013-11-11 03:01:00,
2013-11-10 21:06:00,37.8,23.5,29.75,South,180,0.0,0.0,56,0.00,,,0.00,meteohub,2013-11-11 03:06:00,
2013-11-10 21:11:00,37.8,23.5,29.75,South,180,0.0,0.0,56,0.00,,,0.00,meteohub,2013-11-11 03:11:00,
2013-11-10 21:16:00,37.6,23.4,29.75,South,180,0.0,0.0,56,0.00,,,0.00,meteohub,2013-11-11 03:16:00,
2013-11-10 21:21:00,37.6,23.4,29.75,South,180,0.0,0.0,56,0.00,,,0.00,meteohub,2013-11-11 03:21:00,
2013-11-10 21:26:00,37.8,23.9,29.75,South,180,0.0,0.0,57,0.00,,,0.00,meteohub,2013-11-11 03:26:00,
2013-11-10 21:32:00,37.8,23.9,29.75,South,180,0.0,0.0,57,0.00,,,0.00,meteohub,2013-11-11 03:32:00,
2013-11-10 21:37:00,37.8,24.3,29.75,South,180,0.0,0.0,58,0.00,,,0.00,meteohub,2013-11-11 03:37:00,
2013-11-10 21:42:00,37.8,24.3,29.75,South,180,0.0,0.0,58,0.00,,,0.00,meteohub,2013-11-11 03:42:00,
2013-11-10 21:47:00,37.6,24.6,29.75,South,180,0.0,0.0,59,0.00,,,0.00,meteohub,2013-11-11 03:47:00,
2013-11-10 21:52:00,37.6,24.6,29.75,South,180,0.0,0.0,59,0.00,,,0.00,meteohub,2013-11-11 03:52:00,
2013-11-10 21:57:00,37.6,24.6,29.75,South,180,0.0,0.0,59,0.00,,,0.00,meteohub,2013-11-11 03:57:00,
2013-11-10 22:02:00,37.6,24.6,29.75,South,180,0.0,0.0,59,0.00,,,0.00,meteohub,2013-11-11 04:02:00,
2013-11-10 22:07:00,37.4,24.4,29.75,South,180,0.0,0.0,59,0.00,,,0.00,meteohub,2013-11-11 04:07:00,
2013-11-10 22:12:00,37.2,24.6,29.75,South,180,0.0,0.0,60,0.00,,,0.00,meteohub,2013-11-11 04:12:00,
2013-11-10 22:17:00,37.0,24.4,29.72,South,180,0.0,0.0,60,0.00,,,0.00,meteohub,2013-11-11 04:17:00,
2013-11-10 22:22:00,37.0,24.8,29.72,South,180,0.0,0.0,61,0.00,,,0.00,meteohub,2013-11-11 04:22:00,
2013-11-10 22:27:00,36.9,24.3,29.72,East,90,0.0,0.0,60,0.00,,,0.00,meteohub,2013-11-11 04:27:00,
2013-11-10 22:32:00,36.7,24.1,29.72,East,90,0.0,1.0,60,0.00,,,0.00,meteohub,2013-11-11 04:32:00,
2013-11-10 22:37:00,36.5,23.9,29.72,East,90,0.0,1.0,60,0.00,,,0.00,meteohub,2013-11-11 04:37:00,
2013-11-10 22:42:00,36.5,23.9,29.72,East,90,0.0,1.0,60,0.00,,,0.00,meteohub,2013-11-11 04:42:00,
2013-11-10 22:47:00,36.3,23.7,29.72,East,90,0.0,0.0,60,0.00,,,0.00,meteohub,2013-11-11 04:47:00,
2013-11-10 22:52:00,36.1,24.1,29.72,East,90,0.0,0.0,61,0.00,,,0.00,meteohub,2013-11-11 04:52:00,
2013-11-10 22:57:00,36.1,24.1,29.72,East,90,0.0,0.0,61,0.00,,,0.00,meteohub,2013-11-11 04:57:00,
2013-11-10 23:01:00,35.8,24.1,29.69,East,90,0.0,0.0,62,0.00,,,0.00,meteohub,2013-11-11 05:01:00,
2013-11-10 23:02:00,35.8,24.1,29.69,East,90,0.0,0.0,62,0.00,,,0.00,meteohub,2013-11-11 05:02:00,
2013-11-10 23:03:00,35.8,24.1,29.69,East,90,0.0,0.0,62,0.00,,,0.00,meteohub,2013-11-11 05:03:00,
2013-11-10 23:06:00,35.6,23.9,29.69,East,90,0.0,0.0,62,0.00,,,0.00,meteohub,2013-11-11 05:06:00,
2013-11-10 23:11:00,35.6,23.9,29.69,East,90,0.0,0.0,62,0.00,,,0.00,meteohub,2013-11-11 05:11:00,
2013-11-10 23:16:00,35.4,23.7,29.69,East,90,0.0,0.0,62,0.00,,,0.00,meteohub,2013-11-11 05:16:00,
2013-11-10 23:21:00,35.6,23.9,29.69,East,90,0.0,0.0,62,0.00,,,0.00,meteohub,2013-11-11 05:21:00,
2013-11-10 23:27:00,35.4,23.7,29.69,East,90,0.0,0.0,62,0.00,,,0.00,meteohub,2013-11-11 05:27:00,
2013-11-10 23:32:00,35.6,23.9,29.69,East,90,0.0,0.0,62,0.00,,,0.00,meteohub,2013-11-11 05:32:00,
2013-11-10 23:37:00,35.6,24.3,29.69,East,90,0.0,0.0,63,0.00,,,0.00,meteohub,2013-11-11 05:37:00,
2013-11-10 23:42:00,35.6,24.3,29.69,East,90,0.0,0.0,63,0.00,,,0.00,meteohub,2013-11-11 05:42:00,
2013-11-10 23:47:00,35.6,24.3,29.69,East,90,0.0,0.0,63,0.00,,,0.00,meteohub,2013-11-11 05:47:00,
2013-11-10 23:52:00,35.6,24.6,29.69,East,90,0.0,0.0,64,0.00,,,0.00,meteohub,2013-11-11 05:52:00,
2013-11-10 23:57:00,35.6,24.6,29.69,East,90,0.0,0.0,64,0.00,,,0.00,meteohub,2013-11-11 05:57:00,